Regional & State Weather Roundups


934 
ASUS44 KHUN 170110
RWRHUN
       
WEATHER ROUNDUP FOR THE TENNESSEE VALLEY
NATIONAL WEATHER SERVICE HUNTSVILLE AL
800 PM CDT TUE OCT 16 2018
ALZ001>004-170200-
NORTHWEST ALABAMA
  
CITY           SKY/WX    TMP DP  RH WIND       PRES   REMARKS
COURTLAND HCN    N/A     55 N/A N/A CALM        N/A                   
RUSSELLVILLE     N/A     55 N/A N/A MISG        N/A                   
SHOALS AIRPORT LGT RAIN  56  54  93 CALM      30.21R                  
SHOALS TVA RES   N/A     55 N/A N/A MISG        N/A                   
$$
ALZ005>007-016-170200-
NORTH CENTRAL ALABAMA
  
CITY           SKY/WX    TMP DP  RH WIND       PRES   REMARKS
CULLMAN AG STN   N/A     55 N/A N/A CALM        N/A                   
DECATUR AP     LGT RAIN  55  55 100 NE3       30.19S                  
HUNTSVILLE AP  LGT RAIN  57  57 100 E6        30.18F                  
MERIDIANVILLE  LGT RAIN  55  54  97 CALM      30.18F                  
VINEMONT AP    CLOUDY    55  54  97 N3        30.20F                  
$$
 
ALZ008>010-170200-
NORTHEAST ALABAMA
  
CITY           SKY/WX    TMP DP  RH WIND       PRES   REMARKS
ALBERTVILLE    CLOUDY    59  59 100 CALM      30.18F                  
FORT PAYNE     DRIZZLE   61  59  94 CALM      30.19F                  
SCOTTSBORO AP  LGT RAIN  61  61 100 CALM      30.19S                  
SCOTTSBORO HCN   N/A     61 N/A N/A MISG        N/A                   
VALLEY HEAD      N/A     61 N/A N/A MISG        N/A                   
$$
TNZ076-096-097-170200-
SOUTHEASTERN MIDDLE TENNESSEE
  
CITY           SKY/WX    TMP DP  RH WIND       PRES   REMARKS
TULLAHOMA      CLOUDY    54  52  94 CALM      30.18F                  
WINCHESTER     CLOUDY    55  55 100 CALM      30.18F FOG              
$$
 
...SURROUNDING SITES...
  
CITY           SKY/WX    TMP DP  RH WIND       PRES   REMARKS
ATLANTA        LGT RAIN  70  63  78 N8        30.16R                  
ANNISTON       CLOUDY    67  63  87 VRB5      30.19R                  
BIRMINGHAM     MOCLDY    62  60  93 VRB3      30.19F                  
CHATTANOOGA    LGT RAIN  62  60  93 CALM      30.18F FOG              
CORINTH        LGT RAIN  52  50  93 N6        30.24S                  
DALTON         DRIZZLE   61  61 100 NW6       30.21R                  
GADSDEN        CLOUDY    63  63 100 NE6       30.19S                  
GOLDEN TRNGL   CLOUDY    55  54  96 N3        30.18S                  
HALEYVILLE     CLOUDY    54  54 100 CALM      30.20F                  
JACKSON TN     FAIR      49  47  93 W3        30.26R                  
MEMPHIS        CLOUDY    49  47  93 N5        30.26R                  
NASHVILLE      CLOUDY    52  50  93 CALM      30.21R                  
OXFORD MS      DRIZZLE   50  50 100 N9        30.25S                  
ROME           RAIN      64  62  93 N3        30.18R FOG              
SAVANNAH       CLOUDY    70  64  83 CALM      30.23S                  
SELMER         CLOUDY    50  50 100 CALM      30.23S                  
TUPELO         CLOUDY    53  51  93 NW12      30.22R                  
TUSCALOOSA     CLOUDY    63  59  87 NE7       30.16F                  
$$
...GULF COAST WEATHER...
  
CITY           SKY/WX    TMP DP  RH WIND       PRES   REMARKS
GULFPORT       FAIR      82  76  81 E6        30.06R                  
PASCAGOULA     FAIR      77  73  87 CALM      30.08R                  
MOBILE         FAIR      76  74  93 CALM      30.09R                  
GULF SHORES    FAIR      75  75  98 CALM      30.08R                  
DESTIN         FAIR      82  77  84 S3        30.08R HX  90           
$$